Skip Page Navigation
NASA JPL Caltech
NASA Logo - Jet Propulsion Laboratory + View the NASA Portal
+ Center for Near-Earth Object Studies
JPL Home Earth Solar System Stars & Galaxies Technology
JPL Solar System Dynamics
BODIES ORBITS EPHEMERIDES TOOLS PHYSICAL DATA DISCOVERY FAQ SITE MAP
JPL Small-Body Database Browser
Search: [ help ]  
362381 (2010 NA103)
Classification: Main-belt Asteroid          SPK-ID: 2362381
Ephemeris | Orbit Diagram | Orbital Elements | Mission Design | Physical Parameters | Discovery Circumstances ]

[ show orbit diagram ]
Orbital Elements at Epoch 2459200.5 (2020-Dec-17.0) TDB
Reference: JPL 16 (heliocentric ecliptic J2000)
 Element Value Uncertainty (1-sigma)   Units 
e .02597124184817311 5.6036e-08  
a 2.760736411741388 2.737e-08 au
q 2.689036658712995 1.491e-07 au
i 6.230096682607186 5.6975e-06 deg
node 104.3361063691354 4.8473e-05 deg
peri 240.7764671164104 0.00012025 deg
M 110.6395031669479 0.00010732 deg
tp 2458685.575497730612
(2019-Jul-21.07549773)
0.00050076 TDB
period 1675.466858679436
4.59
2.4916e-05
6.822e-08
d
yr
n .2148654854825023 3.1953e-09 deg/d
Q 2.83243616476978 2.8081e-08 au
  Orbit Determination Parameters
   # obs. used (total)      183  
   data-arc span      6093 days (16.68 yr)  
   first obs. used      2004-05-14  
   last obs. used      2021-01-18  
   planetary ephem.      DE441  
   SB-pert. ephem.      SB441-N16  
   condition code      0  
   norm. resid. RMS      .50683  
   source      ORB  
   producer      Otto Matic  
   solution date      2021-Apr-14 09:39:18  

Additional Information
 Earth MOID = 1.68346 au 
 Jupiter MOID = 2.2749 au 
 T_jup = 3.332 
[ show covariance matrix ]

Ephemeris | Orbit Diagram | Orbital Elements | Mission Design | Physical Parameters | Discovery Circumstances ]

Physical Parameter Table
Parameter Symbol Value Units Sigma Reference Notes
absolute magnitude H 16.79   n/a MPCxxxxx  
diameter diameter 3.208 km 0.645 urn:nasa:pds:neowise_diameters_albedos::2.0[mainbelt] (http://adsabs.harvard.edu/abs/2011ApJ...741...68M)  
geometric albedo albedo 0.057   0.023 urn:nasa:pds:neowise_diameters_albedos::2.0[mainbelt] (http://adsabs.harvard.edu/abs/2011ApJ...741...68M)  

362381 (2010 NA103)          Discovered 2006-Dec-13 by Mt. Lemmon Survey at Mount Lemmon
Reference: Last Updated: 2013-04-29

Alternate Designations
 2010 NA103 = 2006 XL29 = 2008 EF59 = 2012 BG58 
Ephemeris | Orbit Diagram | Orbital Elements | Mission Design | Physical Parameters | Discovery Circumstances ]
ABOUT SSD CREDITS/AWARDS PRIVACY/COPYRIGHT GLOSSARY LINKS
FirstGov 2021-Jun-13 19:08 UT
(server date/time)  
NASA Home Page
Site Manager:   Ryan S. Park
Webmaster  Alan B. Chamberlin